Location: Braunsdorf
(50.7357°N, 11.9136°E)
Time: 08:17:20
(UTC+00:00)

Cosmos 921 Rocket - Pass Details

Date: 17 February 2020
Orbit: 572 x 631 km, 75.8° (Epoch: 09 April)

Event Time Altitude Azimuth Distance (km) Brightness Sun altitude
Rises 05:41:34 0° 329° (NNW) 2,917 6.1 -7.0°
Reaches altitude 10° 05:44:10 10° 316° (NW) 1,997 5.2 -6.6°
Maximum altitude 05:47:43 24° 263° (W) 1,285 4.2 -6.1°
Drops below altitude 10° 05:51:14 10° 209° (SSW) 1,956 5.5 -5.5°
Sets 05:53:45 0° 195° (SSW) 2,842 6.4 -5.1°
